Location: Lango�lan
(48.1202°N, 3.2340°W)
Time: 01:05:21
(UTC+00:00)

IDEFIX/ARIANE 42P - Pass Details

Date: 23 October 2019
Orbit: 785 x 803 km, 98.3° (Epoch: 22 November)

Event Time Altitude Azimuth Distance (km) Brightness Sun altitude
Rises 05:55:43 0° 360° (N) 3,316 5.7 -8.7°
Reaches altitude 10° 05:59:08 10° 337° (NNW) 2,377 4.8 -8.1°
Maximum altitude 06:01:48 14° 306° (NW) 2,084 4.2 -7.7°
Drops below altitude 10° 06:04:27 10° 275° (W) 2,363 4.3 -7.2°
Enters shadow 06:05:12 - 268° (W) 2,527 4.5 -7.1°
